Location: Andiroba
(19.8650°S, 43.9258°W)
Time: 23:28:56
(UTC+00:00)

Cosmos 1447 Rocket - Pass Details

Date: 22 September 2024
Orbit: 954 x 995 km, 82.9° (Epoch: 14 October)

Event Time Altitude Azimuth Distance (km) Brightness Sun altitude
Rises 07:06:05 0° 177° (S) 3,679 7.7 -24.0°
Reaches altitude 10° 07:08:41 10° 173° (S) 2,721 7.0 -23.4°
Maximum altitude 07:14:45 54° 96° (E) 1,155 5.2 -22.0°
Drops below altitude 10° 07:20:43 10° 19° (NNE) 2,676 6.9 -20.6°
Sets 07:23:14 0° 15° (NNE) 3,613 7.6 -20.0°
